Wetbulb
61.66 61.49 61.07 60.77 60.60 60.54 60.43 60.35 60.27 60.05 59.79 59.21 59.30 59.86 60.02 59.74 58.33 53.26 49.72 56.38 59.89 65.15 60.33 53.70 53.46 52.80 53.07 50.83 51.20 50.11 45.83 40.87 40.29 40.73 41.54 45.76 44.50 46.37 48.25 45.50 46.53 46.54 46.51 48.10 50.34
62.28 62.13 61.20 60.57 60.52 60.41 60.17 60.10 60.13 59.93 59.54 58.99 58.91 59.35 59.17 59.05 52.16 50.29 56.77 62.09 62.31 62.64 53.85 51.74 50.07 51.33 49.43 48.35 49.00 48.25 44.82 40.98 44.39 44.96 43.62 43.63 44.77 43.79 44.59 44.22 44.65 45.67 48.72 49.54 50.01
62.26 62.17 61.61 60.48 60.33 59.90 59.72 59.85 59.94 59.22 58.63 58.44 58.66 58.85 58.13 58.37 49.03 48.64 60.79 61.32 61.21 57.74 53.92 52.38 50.30 49.88 47.45 48.38 46.42 46.13 42.78 44.77 44.47 45.97 45.88 43.55 42.85 44.49 43.61 42.25 44.04 42.97 45.24 47.44 48.23
62.31 62.05 61.76 60.79 60.07 59.66 59.46 59.63 59.57 58.63 58.16 57.90 58.19 58.06 58.26 54.52 41.43 51.45 59.59 59.66 58.94 55.87 52.98 50.67 49.19 47.33 45.59 44.16 45.75 42.95 44.66 45.24 46.25 46.46 45.59 44.30 44.65 42.00 42.91 42.55 45.63 45.94 46.35 46.63 46.09
62.38 61.81 61.34 60.71 59.93 59.47 59.11 59.39 58.73 58.75 57.62 57.82 57.69 57.48 54.82 47.85 47.45 53.44 57.66 56.95 54.74 53.83 51.26 49.17 47.58 46.42 43.96 44.52 45.23 44.23 43.98 45.36 46.32 46.00 45.98 45.43 42.70 42.22 41.64 44.27 45.99 45.96 46.18 45.17 44.73
62.35 61.71 61.12 60.75 59.91 59.39 59.35 59.23 57.70 58.48 58.06 57.88 57.63 57.81 50.52 43.75 52.74 53.38 53.21 53.91 54.09 53.15 51.81 51.31 48.11 48.28 45.83 44.13 43.97 43.87 45.02 45.02 45.67 44.99 44.90 42.05 40.81 41.31 42.01 43.94 44.11 44.56 44.53 44.27 43.61
61.90 61.29 60.70 60.32 59.43 58.80 58.15 58.16 57.62 58.34 58.80 58.30 59.10 52.47 49.75 47.14 53.26 53.31 53.24 52.54 53.79 52.83 50.56 52.23 50.75 47.44 46.81 43.82 45.04 44.91 42.14 43.29 44.31 44.29 42.37 42.99 39.15 39.24 41.43 42.13 42.65 43.27 43.37 43.29 42.67
61.69 61.05 60.54 59.96 58.92 58.13 57.16 57.79 57.11 57.39 58.26 58.70 58.87 51.37 46.83 52.25 53.94 52.10 53.53 51.97 54.15 54.89 53.03 52.70 50.87 46.83 45.87 44.84 43.02 41.77 42.24 38.51 42.99 43.67 42.17 42.67 38.05 40.03 41.02 40.36 40.71 41.61 42.28 41.08 40.46
61.26 60.78 60.28 59.64 58.29 57.16 56.16 56.84 55.77 56.32 57.35 57.06 52.69 49.27 44.65 54.36 49.70 51.49 52.52 50.03 51.29 52.34 50.77 47.89 47.64 44.30 43.24 40.87 39.20 39.05 35.98 36.19 38.23 43.43 41.25 41.67 39.48 39.71 39.92 38.46 38.65 40.36 40.82 39.65 38.03
60.27 60.06 59.54 59.11 57.59 56.37 54.78 55.76 54.93 55.55 54.27 50.34 49.27 47.03 47.88 45.99 49.35 50.28 52.31 51.24 49.24 48.46 48.01 46.52 44.87 43.18 42.30 40.57 34.54 34.69 34.84 35.63 35.64 39.34 39.98 39.40 39.17 38.54 38.69 37.04 37.10 38.63 38.94 37.43 36.23
59.78 59.00 58.97 58.61 57.03 55.56 54.43 53.59 50.61 49.81 51.13 45.77 45.64 44.63 46.58 50.33 50.39 49.35 49.88 49.16 47.76 46.47 42.12 43.29 42.29 37.82 37.71 38.55 37.67 36.37 35.12 34.75 38.00 39.28 37.87 38.93 39.12 39.39 38.52 36.66 36.11 36.92 37.59 36.87 37.07
59.65 58.38 58.30 58.18 56.07 54.71 53.72 48.66 47.28 48.98 44.41 48.22 47.20 47.10 48.56 48.71 44.89 48.22 50.20 45.80 44.76 40.51 41.77 41.63 38.28 38.92 39.01 38.33 36.69 36.22 35.48 36.05 37.98 38.22 37.59 38.59 37.38 40.54 38.15 36.98 35.47 33.90 35.66 34.96 36.15
59.03 58.17 58.15 57.10 54.36 53.37 50.26 48.04 51.18 49.87 45.29 44.55 46.75 46.16 46.40 47.75 44.51 45.23 47.96 44.89 42.41 39.75 39.64 38.91 38.52 39.22 37.87 37.20 36.26 37.87 34.95 35.27 34.36 37.49 38.78 36.58 37.15 35.40 37.07 35.44 34.11 33.29 33.76 34.31 33.73
58.27 57.82 57.85 55.37 54.23 50.75 48.61 50.53 51.60 51.20 44.80 42.64 44.31 45.84 46.59 46.16 43.10 47.11 47.31 45.39 42.06 38.73 38.98 39.09 40.18 37.21 37.48 35.64 36.27 34.43 36.71 35.88 35.00 34.20 32.07 36.69 31.06 35.81 36.61 34.74 34.19 33.54 32.70 33.18 33.36
57.36 57.20 57.13 52.93 52.49 49.89 49.62 51.22 51.77 49.88 38.50 43.71 43.95 48.86 46.14 43.99 42.77 44.65 45.70 45.26 39.58 38.35 39.37 37.19 37.57 36.91 36.15 35.36 36.50 35.77 37.35 35.99 34.94 33.97 33.00 33.64 31.21 36.12 34.75 33.94 35.52 34.96 33.08 32.58 32.35
56.85 57.10 55.70 54.05 53.22 50.71 51.30 51.67 50.46 44.62 36.32 40.07 43.49 41.62 42.65 42.32 41.98 43.10 43.82 45.08 42.78 39.00 38.97 38.06 39.94 38.69 37.42 37.48 37.16 38.56 36.93 35.98 35.32 33.97 29.11 32.09 32.23 36.14 35.44 35.46 37.60 35.23 32.98 31.50 31.19
56.77 55.81 53.97 51.74 50.26 51.54 51.72 50.12 45.66 40.07 41.28 39.43 39.58 40.71 38.49 38.60 40.16 39.59 38.75 38.40 36.71 36.98 35.72 37.72 37.45 38.85 38.29 36.81 37.93 38.81 36.47 31.32 29.72 29.89 29.13 32.17 31.02 35.77 36.72 35.90 37.00 34.79 33.17 31.85 30.95
55.87 53.03 52.32 51.27 51.98 50.52 50.96 47.74 39.71 37.36 38.29 40.13 39.44 38.87 37.49 37.87 38.16 39.64 38.05 37.23 38.53 36.39 35.38 32.47 33.48 36.72 37.67 36.39 34.65 35.14 34.56 29.79 23.20 25.98 28.98 32.74 28.89 36.56 35.03 34.25 34.80 35.39 33.40 31.98 30.95
54.15 54.73 53.89 52.56 50.31 50.79 49.25 42.67 39.28 38.86 39.06 38.89 39.66 38.35 38.95 38.52 37.82 40.75 36.33 36.26 37.40 37.58 34.95 32.80 34.02 37.12 36.68 37.14 37.12 34.39 33.18 34.25 29.66 29.44 25.95 31.92 34.71 32.07 33.07 32.27 31.96 32.32 31.75 31.68 31.28
53.96 53.31 54.14 51.88 49.74 50.72 47.77 38.77 38.51 39.63 40.00 39.29 37.76 37.10 36.78 37.31 39.17 38.29 35.30 37.24 37.16 38.19 38.46 34.76 30.62 35.05 36.45 37.04 36.62 35.80 36.66 31.14 32.35 24.80 23.43 30.37 30.97 33.00 34.14 34.48 33.33 32.31 32.25 32.71 31.76
53.68 51.89 54.74 51.02 50.97 50.81 43.36 40.68 39.34 40.70 40.94 39.56 37.97 37.34 36.32 36.36 36.26 36.65 35.90 36.88 38.76 38.02 38.47 36.48 33.32 35.10 35.24 34.32 33.79 33.87 32.90 32.34 32.08 30.56 26.09 24.57 30.95 38.25 37.10 37.60 36.73 36.31 35.03 33.91 31.87
52.35 48.87 54.40 52.21 50.02 44.95 43.21 40.57 40.46 40.24 41.30 39.86 39.35 37.83 36.73 36.75 36.50 36.31 34.98 36.87 39.97 39.25 36.09 35.78 33.68 30.91 34.81 35.97 35.11 34.65 33.52 34.15 29.98 27.52 30.07 27.46 28.19 37.79 37.83 38.40 38.67 38.97 36.88 35.65 34.18
50.35 49.46 54.08 51.99 45.51 44.39 42.87 41.36 40.51 40.23 39.45 39.43 38.55 38.53 38.45 36.87 36.14 36.85 37.65 39.86 40.03 38.20 37.80 36.82 33.88 30.27 34.64 33.92 33.67 31.74 32.73 33.81 32.77 31.87 28.24 26.02 30.42 37.45 37.76 37.00 37.97 38.50 37.63 35.64 33.43
50.05 47.49 49.72 46.40 43.03 43.75 41.71 40.29 39.41 40.46 39.46 39.44 38.61 38.91 37.40 37.67 38.60 36.72 37.55 40.09 39.28 38.96 41.72 39.75 35.38 33.54 30.82 34.04 36.23 32.62 34.40 34.25 32.59 28.11 29.92 30.37 32.68 37.72 38.89 39.21 40.03 38.30 37.32 35.42 32.53
48.13 44.88 42.91 44.30 43.20 41.85 41.92 39.62 38.89 39.65 40.68 39.65 38.28 37.87 38.31 37.53 38.30 37.29 37.33 38.14 40.78 39.95 38.51 35.89 29.48 32.17 33.07 34.37 34.20 32.61 32.27 32.74 30.49 31.11 28.88 33.22 33.61 37.40 39.09 39.10 39.01 38.95 37.79 33.52 31.25
48.64 45.87 43.18 42.16 40.14 42.01 40.50 40.15 39.28 40.26 40.54 39.63 37.66 39.67 39.44 37.43 40.55 39.00 40.50 40.58 39.40 36.46 35.40 33.69 31.57 29.95 28.67 33.67 33.20 30.25 32.92 33.05 32.48 32.68 32.17 32.56 31.87 38.72 39.63 37.02 35.91 35.23 33.78 31.54 30.67
44.82 44.28 48.58 41.28 39.30 41.45 41.97 40.75 40.53 40.18 42.71 41.89 41.02 39.98 39.76 41.63 44.05 44.22 43.63 42.83 42.81 39.27 33.35 31.95 30.76 28.95 27.90 30.80 30.15 28.26 33.70 34.66 33.89 33.85 33.10 30.04 36.82 36.79 35.38 34.84 34.36 33.38 32.03 31.55 30.87
MSLP
1021.98 1021.57 1021.20 1020.79 1020.47 1020.12 1019.75 1019.49 1019.31 1019.14 1018.98 1018.93 1018.82 1018.64 1018.51 1018.24 1017.80 1017.27 1017.59 1018.47 1017.95 1017.39 1017.10 1016.45 1016.00 1016.05 1015.83 1016.39 1016.87 1016.92 1016.44 1016.95 1017.76 1018.23 1019.08 1019.89 1019.87 1020.68 1021.01 1020.74 1021.20 1021.98 1022.14 1022.40 1022.06
1022.13 1021.69 1021.33 1020.92 1020.53 1020.12 1019.71 1019.42 1019.18 1019.02 1018.88 1018.73 1018.67 1018.56 1018.46 1018.32 1017.77 1017.66 1018.52 1018.20 1017.85 1017.50 1016.93 1016.39 1016.01 1015.93 1016.10 1016.63 1016.97 1016.74 1016.90 1017.92 1018.64 1018.98 1019.51 1020.50 1020.70 1021.17 1021.12 1021.19 1021.56 1022.17 1022.47 1022.70 1022.49
1022.32 1021.91 1021.46 1021.00 1020.54 1020.12 1019.68 1019.36 1019.12 1018.98 1018.88 1018.79 1018.76 1018.60 1018.56 1018.31 1017.87 1018.30 1018.49 1018.08 1017.75 1017.48 1017.23 1016.95 1016.64 1016.35 1016.46 1016.93 1017.44 1017.48 1017.75 1018.70 1019.36 1019.71 1020.24 1020.78 1021.37 1021.88 1021.78 1021.90 1022.80 1022.89 1022.88 1022.93 1022.68
1022.43 1022.01 1021.56 1021.04 1020.48 1020.07 1019.61 1019.27 1019.09 1018.96 1018.93 1018.96 1018.96 1018.93 1018.75 1018.27 1018.55 1018.62 1018.61 1018.15 1017.77 1017.33 1017.13 1016.92 1016.55 1016.53 1016.91 1017.17 1017.80 1017.99 1018.82 1019.07 1019.80 1020.46 1020.78 1021.05 1021.75 1022.29 1022.73 1023.36 1023.57 1023.57 1023.55 1023.30 1023.06
1022.64 1022.17 1021.70 1021.16 1020.55 1020.05 1019.62 1019.24 1019.14 1019.04 1018.99 1018.98 1019.08 1019.04 1018.85 1018.27 1018.80 1018.78 1018.74 1018.23 1017.78 1017.58 1017.42 1017.10 1016.85 1017.05 1017.17 1017.71 1018.02 1018.20 1019.22 1019.85 1020.35 1020.85 1021.16 1021.66 1022.10 1022.41 1023.09 1023.57 1023.65 1023.63 1023.49 1023.56 1023.65
1022.76 1022.14 1021.63 1021.10 1020.54 1020.04 1019.63 1019.31 1019.22 1019.14 1019.14 1019.15 1019.15 1019.10 1018.63 1018.62 1019.19 1019.07 1018.79 1018.38 1018.25 1018.01 1017.99 1017.65 1017.70 1017.66 1017.75 1018.28 1018.44 1019.18 1019.49 1020.22 1020.71 1021.01 1021.44 1021.71 1022.41 1022.78 1023.18 1023.65 1023.60 1023.58 1023.70 1023.86 1024.00
1022.87 1022.26 1021.69 1021.16 1020.61 1020.06 1019.71 1019.41 1019.34 1019.32 1019.25 1019.25 1019.18 1018.94 1018.60 1019.60 1019.33 1019.20 1018.96 1018.95 1018.93 1018.66 1018.46 1018.62 1018.45 1018.02 1018.31 1018.68 1019.37 1019.46 1019.65 1020.13 1020.60 1020.98 1021.39 1021.82 1021.96 1022.32 1023.26 1023.66 1023.65 1023.73 1023.96 1024.18 1024.42
1022.97 1022.34 1021.70 1021.16 1020.61 1020.08 1019.75 1019.60 1019.48 1019.43 1019.42 1019.30 1019.15 1018.69 1019.20 1019.57 1019.41 1019.30 1019.04 1019.00 1018.96 1018.94 1018.97 1019.06 1018.78 1018.63 1018.89 1019.33 1019.34 1019.22 1019.46 1019.34 1019.86 1020.75 1021.46 1021.76 1020.67 1022.15 1023.39 1023.79 1023.97 1024.19 1024.42 1024.65 1024.86
1023.00 1022.36 1021.73 1021.22 1020.53 1020.09 1019.76 1019.66 1019.55 1019.45 1019.43 1019.22 1019.03 1018.62 1019.41 1019.56 1019.56 1019.65 1019.54 1019.25 1019.09 1019.07 1019.16 1019.19 1019.03 1019.16 1019.39 1018.96 1018.95 1019.22 1018.77 1019.23 1019.59 1020.36 1021.06 1021.28 1020.44 1022.17 1023.34 1023.76 1024.02 1024.24 1024.43 1024.76 1025.12
1023.22 1022.63 1022.03 1021.44 1020.73 1020.08 1019.75 1019.66 1019.54 1019.31 1019.22 1019.14 1019.22 1019.34 1019.74 1020.13 1020.08 1019.92 1019.66 1019.54 1019.20 1019.04 1018.97 1018.91 1018.99 1018.95 1019.11 1018.75 1018.68 1019.01 1019.06 1019.27 1019.51 1020.06 1020.74 1020.71 1020.70 1022.06 1022.93 1023.54 1023.99 1024.29 1024.36 1024.88 1025.07
1023.40 1022.84 1022.22 1021.62 1020.90 1020.27 1019.55 1019.42 1019.94 1020.06 1020.00 1020.83 1020.85 1020.54 1020.49 1020.42 1020.37 1020.02 1019.98 1019.68 1019.37 1019.15 1019.06 1019.38 1019.08 1019.22 1019.70 1019.88 1020.01 1019.94 1019.74 1019.49 1019.42 1020.13 1020.55 1019.91 1020.03 1020.82 1022.21 1023.15 1023.84 1024.41 1024.44 1024.91 1025.16
1023.37 1022.88 1022.31 1021.63 1021.14 1020.57 1020.23 1021.10 1022.41 1022.70 1021.80 1021.33 1021.00 1020.82 1020.84 1020.90 1020.39 1020.06 1019.87 1019.80 1019.50 1019.48 1019.64 1019.55 1019.57 1020.21 1020.49 1020.55 1020.44 1020.19 1019.82 1019.38 1019.65 1020.30 1020.49 1019.49 1019.20 1019.72 1021.61 1022.67 1023.72 1024.52 1024.93 1025.28 1025.34
1023.44 1022.93 1022.28 1021.70 1021.20 1021.18 1021.86 1022.95 1023.18 1023.09 1021.99 1021.49 1021.09 1020.90 1021.00 1020.97 1020.85 1020.58 1020.38 1020.32 1020.10 1019.97 1020.10 1019.89 1020.47 1020.70 1020.79 1020.61 1020.34 1019.87 1020.05 1020.11 1020.41 1020.24 1020.02 1019.89 1018.12 1019.54 1021.47 1022.81 1023.94 1024.84 1025.44 1025.69 1025.90
1023.58 1023.14 1022.44 1021.69 1021.42 1022.18 1022.65 1023.24 1023.21 1023.06 1021.91 1021.82 1021.06 1021.14 1021.01 1020.88 1021.00 1021.04 1021.00 1020.98 1020.56 1020.68 1020.76 1020.69 1020.98 1021.07 1020.97 1020.91 1021.04 1020.37 1020.77 1020.87 1020.66 1020.34 1019.56 1020.08 1018.42 1018.75 1020.60 1022.13 1023.38 1024.39 1025.52 1025.82 1026.22
1023.59 1023.19 1022.70 1022.00 1022.07 1022.41 1023.32 1023.22 1023.12 1022.77 1022.18 1022.27 1021.25 1021.00 1021.03 1021.08 1021.51 1021.04 1021.44 1020.74 1020.94 1021.10 1021.19 1021.19 1021.24 1021.27 1021.20 1021.50 1021.63 1021.08 1021.03 1020.79 1020.75 1020.38 1020.29 1019.57 1019.70 1018.47 1020.16 1021.01 1022.22 1023.62 1024.70 1025.53 1026.14
1023.52 1023.11 1022.68 1022.38 1022.37 1023.23 1023.26 1023.16 1023.00 1022.39 1022.24 1022.13 1021.76 1021.55 1021.27 1021.49 1021.59 1021.38 1021.20 1021.21 1021.52 1021.33 1021.29 1021.33 1021.70 1021.71 1021.60 1021.69 1021.62 1021.25 1020.81 1020.70 1020.62 1020.25 1019.75 1019.42 1019.65 1017.69 1019.12 1020.05 1020.94 1022.91 1024.42 1025.66 1026.25
1023.42 1023.04 1022.66 1022.90 1023.11 1023.25 1023.15 1022.76 1022.34 1022.11 1023.02 1022.74 1022.47 1022.34 1022.30 1022.11 1021.88 1022.02 1021.96 1021.91 1022.02 1021.60 1021.44 1021.47 1021.58 1021.82 1021.96 1021.53 1021.60 1021.11 1020.43 1020.05 1020.02 1019.64 1019.06 1019.39 1019.35 1017.84 1019.26 1020.51 1021.24 1022.58 1024.01 1025.27 1026.14
1023.49 1023.18 1023.15 1023.10 1023.25 1023.27 1022.86 1022.18 1022.07 1023.09 1023.00 1023.14 1023.01 1022.81 1022.67 1022.87 1022.58 1022.31 1022.19 1022.34 1022.75 1022.66 1022.29 1022.05 1021.67 1021.97 1022.12 1022.08 1022.04 1021.82 1021.69 1021.52 1021.21 1020.32 1019.42 1019.19 1018.66 1018.20 1020.00 1021.07 1021.95 1022.86 1024.17 1025.13 1025.91
1023.39 1023.19 1023.06 1023.09 1023.28 1023.17 1022.54 1022.16 1023.33 1023.55 1023.74 1023.54 1023.28 1023.01 1023.02 1023.17 1023.18 1022.61 1022.76 1023.01 1023.32 1023.30 1023.13 1022.73 1022.15 1022.28 1022.42 1022.42 1022.41 1021.95 1022.00 1022.56 1021.88 1021.45 1020.78 1018.62 1018.17 1019.17 1020.20 1021.23 1022.26 1023.17 1024.26 1025.17 1025.80
1023.45 1023.10 1022.88 1023.09 1023.08 1022.72 1022.01 1023.37 1023.90 1024.01 1024.02 1023.88 1023.57 1023.74 1023.34 1023.29 1023.09 1023.02 1023.16 1023.54 1023.66 1023.87 1023.83 1023.68 1023.09 1022.45 1022.52 1022.69 1022.69 1022.37 1022.57 1022.60 1022.20 1021.22 1019.95 1018.40 1018.13 1018.07 1019.12 1019.99 1021.43 1022.34 1023.06 1024.28 1025.56
1023.33 1022.74 1022.62 1022.83 1022.87 1022.23 1022.82 1023.78 1024.12 1024.24 1024.22 1024.19 1023.98 1023.87 1023.80 1023.66 1023.60 1023.45 1023.52 1023.79 1023.87 1024.00 1024.10 1024.09 1024.16 1022.85 1022.77 1022.42 1022.38 1022.69 1022.47 1022.50 1022.51 1022.01 1020.92 1019.26 1017.22 1017.36 1018.23 1019.07 1019.96 1020.85 1021.97 1023.20 1024.54
1023.14 1022.70 1022.51 1022.49 1022.58 1023.43 1023.71 1024.20 1024.44 1024.50 1024.60 1024.53 1024.42 1024.28 1024.20 1024.20 1023.99 1023.88 1023.80 1023.73 1023.98 1024.15 1024.26 1024.70 1024.56 1023.55 1022.41 1022.61 1022.94 1022.84 1022.39 1022.30 1022.12 1021.92 1021.70 1021.23 1018.02 1017.45 1017.94 1018.54 1019.29 1019.74 1020.86 1022.12 1023.63
1023.50 1023.22 1022.52 1022.50 1022.92 1023.71 1024.33 1024.45 1024.55 1024.58 1024.63 1024.56 1024.53 1024.64 1024.64 1024.51 1024.42 1024.14 1024.03 1024.10 1024.33 1024.58 1024.50 1024.88 1024.73 1023.91 1022.27 1023.02 1023.25 1023.06 1022.87 1022.75 1022.65 1022.46 1021.50 1020.80 1017.38 1017.13 1017.80 1018.23 1018.57 1019.07 1019.92 1021.13 1022.68
1023.87 1023.71 1023.39 1023.61 1024.64 1024.21 1024.49 1024.73 1024.79 1024.92 1024.83 1024.79 1024.73 1024.78 1024.77 1024.59 1024.58 1024.35 1024.18 1024.14 1024.44 1024.56 1024.75 1024.94 1024.96 1024.63 1023.95 1023.29 1023.42 1022.73 1022.64 1022.65 1022.50 1021.84 1020.35 1018.58 1017.04 1016.16 1016.96 1017.33 1017.79 1018.74 1019.61 1020.78 1022.13
1024.32 1024.96 1025.33 1024.80 1025.00 1024.91 1024.90 1025.02 1024.96 1024.99 1025.03 1024.91 1024.90 1024.77 1024.66 1024.49 1024.33 1024.17 1024.21 1024.19 1024.30 1024.85 1025.24 1025.51 1025.23 1024.60 1023.84 1023.45 1023.02 1022.03 1021.12 1021.48 1021.57 1020.45 1020.51 1016.84 1017.16 1015.41 1016.14 1016.70 1017.29 1018.08 1019.09 1020.56 1021.78
1024.78 1025.06 1025.81 1025.52 1025.45 1025.08 1025.19 1025.06 1024.96 1024.97 1024.89 1024.74 1024.81 1024.65 1024.72 1024.60 1024.12 1023.77 1024.00 1024.17 1024.25 1024.97 1025.33 1025.78 1025.29 1024.99 1023.94 1023.01 1022.75 1021.60 1020.75 1020.48 1020.31 1019.69 1019.22 1018.03 1016.84 1016.30 1016.76 1017.71 1018.33 1018.83 1019.54 1020.52 1021.70
1025.00 1025.15 1024.85 1025.89 1025.76 1025.49 1025.15 1025.21 1025.11 1025.10 1024.73 1024.60 1024.62 1024.64 1024.50 1024.11 1024.04 1024.06 1024.00 1024.00 1024.14 1024.68 1025.44 1025.78 1025.66 1025.37 1023.76 1023.22 1022.80 1021.06 1018.85 1019.04 1019.14 1019.03 1018.67 1017.94 1016.53 1017.11 1017.76 1018.48 1019.15 1019.66 1020.24 1020.79 1021.60
Wind_Speed
17 17 17 16 14 13 12 11 9 7 4 4 4 5 7 9 6 7 9 7 10 14 11 3 4 3 5 5 5 1 2 5 4 4 5 2 2 3 1 4 3 7 8 15 18
17 18 17 15 14 14 13 11 9 7 4 3 3 3 4 6 5 13 6 10 11 10 5 6 7 6 5 4 4 3 2 3 3 5 5 5 2 4 3 3 3 8 12 14 15
16 17 17 15 15 14 12 10 8 6 4 2 3 3 1 3 1 5 11 12 10 7 0 1 1 3 6 4 5 3 5 6 4 7 6 5 4 3 6 2 10 17 18 16 15
18 19 19 17 15 14 12 8 6 5 2 0 1 1 1 2 2 4 13 12 8 5 2 4 1 3 4 5 3 7 5 2 7 6 4 4 6 5 7 4 9 12 14 13 15
18 19 19 18 17 15 12 7 5 4 2 2 1 0 3 4 5 6 11 8 4 3 7 3 8 3 5 4 4 8 5 4 5 5 5 7 3 3 5 5 6 9 12 13 13
19 19 19 18 16 15 11 4 4 4 3 3 2 4 1 4 4 7 9 5 9 5 7 8 4 3 7 4 3 3 6 9 6 5 5 3 2 3 2 6 7 11 14 13 14
19 19 19 18 17 15 12 3 4 3 2 2 3 2 9 5 3 6 7 4 5 5 4 4 2 1 2 5 3 7 6 4 7 5 3 3 7 6 2 4 7 10 12 14 15
18 19 20 20 17 15 11 2 3 3 3 4 3 1 5 2 3 4 7 3 4 5 4 2 4 7 3 5 3 1 3 5 6 6 4 4 9 6 2 4 6 8 8 11 13
19 21 21 21 19 16 8 2 4 4 4 4 1 2 3 0 2 4 5 4 3 2 4 3 2 4 3 3 4 2 5 5 3 7 3 11 7 5 3 1 3 4 7 9 10
20 19 20 20 18 16 5 2 4 1 2 1 2 2 3 5 4 4 3 2 2 1 1 3 3 1 2 3 4 5 6 3 8 4 8 10 14 6 5 3 0 4 6 6 9
19 19 19 19 16 15 2 1 1 2 10 5 2 2 3 6 2 5 4 3 2 3 4 4 2 6 5 3 3 3 6 9 8 2 5 11 14 11 10 7 4 1 4 6 7
15 21 19 19 11 15 4 6 2 3 7 1 0 1 1 3 3 10 6 3 4 4 4 2 4 3 1 0 3 5 9 6 5 2 5 11 16 9 11 6 3 0 4 7 8
15 22 21 19 6 4 9 4 2 2 2 3 2 2 3 4 3 8 7 2 5 4 5 2 3 2 2 3 7 9 5 5 6 8 8 10 11 6 7 4 4 1 1 4 7
15 18 19 20 1 2 4 3 2 2 2 8 4 4 2 2 2 2 4 3 2 4 3 2 3 3 4 3 5 9 2 5 11 8 6 4 7 5 7 9 7 4 1 3 6
17 18 16 11 2 3 4 3 2 3 1 6 4 3 3 4 5 5 2 1 3 3 3 3 4 4 2 4 2 5 6 8 4 6 6 3 5 4 3 8 11 7 4 2 4
16 16 12 1 2 2 3 2 3 2 1 2 4 7 3 5 4 7 4 5 1 0 1 1 0 1 3 2 2 9 7 4 2 3 3 2 3 4 3 2 8 9 5 1 3
13 12 3 1 3 2 1 3 1 3 1 5 4 5 1 6 4 8 5 8 6 4 7 5 0 1 2 4 3 9 8 3 2 2 3 2 6 8 0 1 4 11 9 5 2
14 4 3 2 1 1 2 3 4 1 1 1 3 2 2 7 3 7 2 4 5 3 3 6 1 4 3 2 4 4 5 4 6 6 10 0 6 1 2 3 4 7 8 7 5
10 1 0 1 1 2 3 5 3 0 2 5 1 2 1 2 4 5 4 3 3 6 6 6 3 1 1 1 3 2 1 2 5 2 4 4 5 4 3 4 6 8 9 9 7
2 2 1 5 3 3 2 4 2 0 1 1 3 2 3 5 5 5 3 2 1 2 3 1 7 1 1 2 1 3 3 2 1 6 7 6 8 9 4 8 10 13 14 12 8
0 1 2 4 3 2 4 3 2 1 1 1 0 2 1 3 2 3 2 1 1 1 1 0 2 1 4 4 1 2 3 2 3 3 5 7 7 1 2 3 10 13 14 14 13
0 1 2 2 2 2 3 1 1 1 1 0 0 1 2 2 3 2 2 3 3 1 2 2 3 6 9 2 1 3 3 4 3 2 4 5 12 4 3 5 6 8 13 15 13
2 2 1 4 2 3 2 2 1 2 1 1 1 1 0 2 4 3 2 1 2 2 1 3 2 7 3 3 3 3 2 3 3 2 10 9 9 4 4 5 6 9 12 15 15
1 0 3 5 2 3 2 1 1 0 1 1 1 1 1 3 3 3 3 1 2 3 0 4 4 8 9 13 10 16 12 8 10 10 13 21 25 25 18 17 13 11 11 14 15
3 2 1 2 3 3 1 1 1 2 1 1 2 5 4 3 3 4 3 3 3 1 2 3 6 9 14 17 18 22 22 17 18 23 13 25 19 26 21 18 16 12 9 15 16
1 3 1 2 2 3 1 3 3 1 3 3 4 3 5 6 7 12 9 7 8 3 4 2 4 2 9 16 15 22 17 17 17 21 22 26 28 24 17 3 5 5 8 14 15
2 2 2 2 2 1 2 4 4 2 4 4 5 4 7 13 11 12 13 12 12 6 6 4 3 1 6 1 8 14 14 9 4 8 7 9 11 2 5 6 6 5 8 12 14
Wind_Direction
2 360 357 350 347 343 338 337 334 327 307 292 299 313 328 331 304 62 41 334 321 328 332 319 47 51 59 71 40 295 103 121 114 164 116 86 211 76 308 0 48 23 12 326 326
0 359 358 352 347 344 339 336 331 330 312 256 239 263 314 335 66 56 352 336 333 342 341 14 44 52 71 46 42 19 108 93 64 106 122 82 77 4 296 340 18 347 332 334 332
360 359 0 354 349 348 343 337 332 333 324 252 218 222 283 287 157 25 350 339 346 345 222 44 84 58 70 53 21 43 97 125 79 114 123 118 103 44 346 21 3 331 333 335 333
358 358 359 355 347 352 348 337 333 343 343 321 206 218 262 236 43 12 340 334 343 7 132 56 59 75 69 75 46 111 89 107 135 132 141 163 125 104 52 357 334 333 335 335 343
355 356 356 356 346 349 351 339 351 7 71 106 98 332 266 77 51 350 336 344 345 6 40 46 56 88 97 94 93 105 122 86 124 140 123 137 106 108 54 8 354 353 358 349 343
352 351 354 353 347 346 352 353 19 46 73 80 38 292 229 77 349 342 340 350 16 23 36 30 64 85 90 68 18 78 121 123 143 145 149 174 125 215 115 359 4 6 3 357 356
350 349 350 351 350 347 351 37 46 55 60 39 357 272 67 69 351 349 6 8 3 16 56 39 68 20 114 112 96 131 136 164 184 186 168 183 212 218 46 353 13 11 10 4 3
348 348 349 350 346 345 355 27 33 6 341 342 332 256 70 357 345 16 357 13 29 31 69 47 82 85 24 123 102 173 219 248 150 182 149 235 281 160 56 350 18 10 12 10 7
349 348 347 349 342 349 358 351 0 321 323 330 261 332 66 45 13 347 356 356 338 60 51 75 50 62 147 199 169 175 306 273 253 207 161 216 290 141 106 5 348 7 16 13 356
351 345 344 347 339 345 347 304 352 283 327 164 113 171 62 350 322 333 344 357 15 305 191 39 45 104 55 333 1 329 308 275 279 170 218 235 258 183 180 183 264 340 20 0 6
352 347 342 346 338 352 356 268 222 86 41 52 21 49 349 330 260 6 360 310 336 48 13 30 42 21 5 3 4 307 287 286 285 257 268 261 269 222 194 193 193 312 16 5 359
348 348 342 342 342 353 41 64 45 359 93 82 43 354 295 338 321 18 346 8 22 34 330 194 53 13 348 192 295 295 307 314 280 258 265 295 269 242 200 203 179 302 355 4 354
349 346 339 338 336 37 60 59 299 204 77 62 43 18 343 339 46 351 358 352 32 40 19 22 45 344 313 306 322 332 300 337 320 313 250 292 265 203 202 182 166 135 341 11 4
349 342 336 330 87 6 57 344 250 239 139 8 8 42 310 340 87 321 11 347 55 30 1 8 2 347 335 331 332 323 17 316 310 308 318 335 300 187 184 206 208 182 282 20 10
344 341 339 2 40 48 351 313 185 239 100 350 351 337 354 50 316 41 12 9 47 21 291 31 351 353 336 3 298 318 318 301 300 287 304 178 267 92 164 217 214 197 174 112 41
343 339 332 20 63 60 331 167 234 196 319 24 333 356 359 25 21 317 14 49 48 164 16 2 263 257 342 304 253 300 284 266 204 261 249 64 311 298 211 251 194 174 161 123 43
337 337 14 324 25 19 178 228 163 50 3 6 344 356 4 354 10 15 18 32 22 351 9 328 71 67 335 298 197 340 330 323 273 286 312 172 268 280 11 157 240 180 165 162 139
336 348 31 47 31 294 228 211 75 64 353 18 322 306 44 354 49 355 20 54 64 4 330 353 328 359 16 26 330 6 347 13 320 326 306 329 245 343 75 99 116 148 159 164 176
330 356 323 60 219 207 248 51 49 108 333 329 300 3 51 21 339 339 35 22 12 359 11 338 278 339 34 333 301 69 1 13 272 245 268 271 271 178 173 191 175 176 184 198 190
341 319 333 342 184 227 65 102 128 203 321 290 2 341 328 342 336 2 5 59 60 2 304 84 289 152 278 192 104 312 114 241 197 307 299 278 292 269 219 221 208 210 208 198 196
278 205 81 347 211 45 71 87 154 154 243 346 223 273 290 316 321 330 343 117 216 175 360 173 260 225 267 206 278 195 196 186 282 259 291 312 287 5 273 207 219 225 211 199 194
96 190 41 249 49 40 79 107 147 139 38 119 132 276 280 327 299 292 283 251 192 237 329 46 313 283 284 10 356 279 258 223 267 234 251 293 273 161 254 246 240 233 212 203 200
32 328 36 291 91 97 119 118 137 167 178 168 200 247 157 271 290 231 255 344 169 250 353 163 218 297 262 160 116 245 196 251 306 330 262 266 263 176 207 238 231 230 210 198 188
185 147 34 56 24 88 135 126 157 71 194 193 148 146 199 243 220 291 263 287 176 223 337 180 232 241 276 299 302 281 264 244 249 270 261 245 272 276 269 282 281 253 227 198 187
5 89 35 82 73 88 86 127 161 226 217 210 201 227 207 256 242 230 240 277 212 161 155 221 244 238 258 274 271 268 269 259 242 243 256 271 273 276 293 300 302 301 229 194 190
113 156 107 102 153 152 185 186 190 233 211 201 227 188 209 236 240 283 280 284 262 139 174 190 264 242 278 260 269 269 275 258 249 260 250 262 271 281 293 297 284 286 210 203 196
128 98 270 64 124 210 189 175 195 197 213 241 219 237 243 249 261 275 272 264 256 250 205 198 226 288 269 196 298 275 260 215 197 229 235 248 270 302 261 268 296 294 228 216 200